Flag for Australia Weather past 2 weeks in Bairnsdale, Victoria, Australia

Now
77 °F

Mild.


Feels Like: 78 °F
Forecast: 54 / 65 °F
Wind: 16 mph from South

Location: Bairnsdale Airport

Current Time: Mar 4, 2015 at 6:03:41 PM

Latest Report: Mar 4, 2015 at 4:00 PM


Visibility: N/A

Pressure: 29.80 "Hg

Humidity: 40%

Dew point: 51 °F

Location of BairnsdaleLocation

Historic Weather in Bairnsdale — Graph

°F

Bairnsdale temperature yesterday

Maximum temperature yesterday: 70 °F (at 12:00 PM)
Minimum temperature yesterday: 55 °F (at 10:00 PM)
Average temperature yesterday: 62 °F

Past Weeks' High & Low Weather Summary

 TemperatureHumidityPressure
High96 °F (Feb 23, 1:00 PM)100% (Feb 17, 4:00 PM)30.17 "Hg (Feb 17, 4:00 PM)
Low46 °F (Mar 2, 6:00 AM)25% (Feb 23, 1:00 PM)29.57 "Hg (Feb 28, 10:00 PM)
Average67 °F79%29.95 "Hg
* Reported Feb 17 4:00 PM — Mar 4 4:00 PM, Bairnsdale, Weather by CustomWeather, © 2015

Note: Actual official high and low records may vary slightly from our data, if they occured in-between our weather recording intervals... More about our weather records

Advertising

Bairnsdale weather history for previous 24 hours

 ConditionsComfort  
Time TempWeatherWind HumidityBarometerVisibility
4:00 PM
Wed, Mar 4
77 °FMild.16 mph40%29.80 "HgN/A
3:00 PM76 °FMild.8 mph41%29.82 "HgN/A
1:00 PM73 °FMild.10 mph50%29.88 "HgN/A
12:00 PM71 °FMild.6 mph49%29.91 "HgN/A
10:00 AM65 °FMild.6 mph66%29.96 "HgN/A
9:00 AM59 °FOvercast.7 mph85%29.97 "HgN/A
7:00 AM55 °FCool.6 mph95%29.96 "HgN/A
6:00 AM54 °FOvercast.6 mph95%29.95 "HgN/A
4:00 AM54 °FCool.8 mph95%29.93 "HgN/A
3:00 AM55 °FOvercast.8 mph98%29.94 "HgN/A
1:00 AM55 °FCool.6 mph94%29.99 "HgN/A
12:00 AM56 °FOvercast.5 mph94%30.00 "HgN/A
10:00 PM
Tue, Mar 3
55 °FCool.2 mph90%30.01 "HgN/A
9:00 PM60 °FCool.5 mph80%30.01 "HgN/A
7:00 PM65 °FMild.10 mph66%29.97 "HgN/A
6:00 PM68 °FMild.10 mph60%29.97 "HgN/A
Weather by CustomWeather, © 2015

See weather overviewHow to use our weather pages